Location: Luxembourg
(49.6117°N, 6.1300°E)
Time: 14:23:34
(UTC+02:00)

OTV 5 (USA 277) - Visible Passes

Search period start: 21 September 2017 00:00
Search period end: 01 October 2017 00:00
Orbit: 404 x 417 km, 43.0° (Epoch: 07 September)

Date Brightness Start Highest point End Pass type
(mag) Time Alt. Az. Time Alt. Az. Time Alt. Az.
21 Sep ? 06:05:40 12° SSW 06:07:36 18° SSE 06:09:54 10° ESE visible
22 Sep ? 05:17:03 14° SSE 05:17:03 14° SSE 05:18:38 10° ESE visible
23 Sep ? 06:01:10 18° SSW 06:02:28 23° S 06:05:10 10° ESE visible
24 Sep ? 05:12:31 18° SE 05:12:31 18° SE 05:14:07 10° ESE visible
24 Sep ? 06:45:33 10° WSW 06:48:19 25° S 06:51:05 10° SE visible
25 Sep ? 05:56:38 23° SSW 05:57:23 26° S 06:00:11 10° ESE visible
26 Sep ? 05:08:01 18° SE 05:08:01 18° SE 05:09:14 10° ESE visible
26 Sep ? 06:40:47 10° WSW 06:43:13 20° SSW 06:45:44 10° SE visible
27 Sep ? 05:52:12 23° SSW 05:52:17 23° S 05:54:58 10° SE visible
28 Sep ? 05:03:42 13° SE 05:03:42 13° SE 05:04:08 10° SE visible
28 Sep ? 06:36:28 11° SW 06:38:02 14° SSW 06:39:50 10° SSE visible
29 Sep ? 05:48:03 16° S 05:48:03 16° S 05:49:24 10° SSE visible
